Location: London
(51.5074°N, 0.1278°W)
Time: 09:05:33
(UTC+01:00)

N. Korean satellite - Pass Details

Date: 29 September 2021
Orbit: 450 x 495 km, 97.3° (Epoch: 15 October)

Event Time Altitude Azimuth Distance (km) Brightness Sun altitude
Rises 05:44:51 0° 22° (NNE) 2,538 10.7 -12.2°
Reaches altitude 10° 05:47:06 10° 34° (NE) 1,663 10.0 -11.8°
Maximum altitude 05:50:14 28° 95° (E) 936 8.9 -11.3°
Drops below altitude 10° 05:53:23 10° 156° (SSE) 1,671 9.5 -10.9°
Sets 05:55:40 0° 169° (SSE) 2,554 10.3 -10.5°
